DW3929 Weather Reports


Display with metric or nautical units.
time (UTC)temp
F
wind
direction
speed
MPH
gust
MPH
rain 1hr
in
rain 24hr
in
rain mn
in
humidity
%
barometer
mb
20260903143322 86 360 7.0 14.0 0.00 0.00 0.00 82 1013.1
20260903142834 86 360 6.0 13.0 0.00 0.00 0.00 84 1013.2
20260903142312 86 360 6.0 11.0 0.00 0.00 0.00 83 1013.2
20260903141831 86 360 6.0 13.0 0.00 0.00 0.00 84 1013.2
20260903141330 85 360 6.0 13.0 0.00 0.00 0.00 85 1013.1
20260903140829 85 360 7.0 14.0 0.00 0.00 0.00 86 1013.0
20260903140326 85 360 9.0 14.0 0.00 0.00 0.00 86 1013.2
20260903135844 84 360 8.0 11.0 0.00 0.00 0.00 87 1013.2
20260903135324 84 360 6.0 13.0 0.00 0.00 0.00 88 1013.2
20260903134817 84 360 7.0 13.0 0.00 0.00 0.00 88 1013.2
20260903134316 84 360 4.0 12.0 0.00 0.00 0.00 88 1013.3
20260903133816 83 360 5.0 11.0 0.00 0.00 0.00 88 1013.2
20260903133334 83 360 6.0 12.0 0.00 0.00 0.00 89 1013.1
20260903132812 83 360 6.0 12.0 0.00 0.00 0.00 89 1013.1
20260903132330 83 360 4.0 10.0 0.00 0.00 0.00 89 1013.1
20260903131829 83 360 3.0 10.0 0.00 0.00 0.00 90 1013.2
20260903131328 83 360 5.0 11.0 0.00 0.00 0.00 90 1013.2
20260903130827 83 360 5.0 10.0 0.00 0.00 0.00 90 1013.2
20260903130327 82 360 3.0 10.0 0.00 0.00 0.00 90 1013.2
20260903125821 82 360 4.0 9.0 0.00 0.00 0.00 90 1013.2
20260903125340 82 360 5.0 9.0 0.00 0.00 0.00 90 1013.1
20260903124853 82 360 2.0 9.0 0.00 0.00 0.00 90 1013.0
20260903124330 82 360 2.0 5.0 0.00 0.00 0.00 90 1013.0
20260903123829 82 360 2.0 9.0 0.00 0.00 0.00 90 1013.0
20260903123329 82 360 3.0 9.0 0.00 0.00 0.00 90 1012.9
20260903122841 82 360 3.0 9.0 0.00 0.00 0.00 90 1012.9
20260903122321 82 360 3.0 9.0 0.00 0.00 0.00 90 1012.8
20260903121839 82 360 4.0 9.0 0.00 0.00 0.00 90 1012.8
20260903121318 82 360 2.0 11.0 0.00 0.00 0.00 89 1012.8
20260903120816 82 360 3.0 11.0 0.00 0.00 0.00 89 1012.7
20260903120317 82 360 3.0 10.0 0.00 0.00 0.00 89 1012.7
20260903115816 82 360 5.0 11.0 0.00 0.00 0.00 89 1012.5
20260903115315 82 360 6.0 11.0 0.00 0.00 0.00 89 1012.5
20260903114834 82 360 4.0 8.0 0.00 0.00 0.00 89 1012.6
20260903114333 82 360 4.0 9.0 0.00 0.00 0.00 88 1012.5
20260903113826 83 360 3.0 9.0 0.00 0.00 0.00 88 1012.6
20260903113346 83 360 3.0 9.0 0.00 0.00 0.00 88 1012.6
20260903112824 83 360 3.0 8.0 0.00 0.00 0.00 88 1012.5
20260903112323 83 360 3.0 11.0 0.00 0.00 0.00 88 1012.5
20260903111823 83 360 4.0 16.0 0.00 0.00 0.00 88 1012.4
20260903111322 83 360 6.0 16.0 0.00 0.00 0.00 88 1012.4
20260903110820 83 360 6.0 13.0 0.00 0.00 0.00 88 1012.4
20260903110320 83 360 6.0 13.0 0.00 0.00 0.00 88 1012.5
20260903105820 83 360 4.0 14.0 0.00 0.00 0.00 88 1012.5
20260903105319 83 360 4.0 10.0 0.00 0.00 0.00 88 1012.4
20260903104818 83 360 5.0 14.0 0.00 0.00 0.00 88 1012.3
20260903104316 83 360 4.0 14.0 0.00 0.00 0.00 88 1012.3
20260903103834 83 360 6.0 14.0 0.00 0.00 0.00 88 1012.3
20260903103314 83 360 7.0 12.0 0.00 0.00 0.00 88 1012.3
20260903102833 83 360 3.0 12.0 0.00 0.00 0.00 89 1012.3
20260903102352 83 360 4.0 12.0 0.00 0.00 0.00 89 1012.3
20260903101829 83 360 4.0 12.0 0.00 0.00 0.00 89 1012.3
20260903101327 83 360 5.0 13.0 0.00 0.00 0.00 89 1012.3
20260903100826 83 360 6.0 13.0 0.00 0.00 0.00 89 1012.3
20260903100325 83 360 6.0 12.0 0.00 0.00 0.00 89 1012.3
20260903095846 83 360 3.0 12.0 0.00 0.00 0.00 89 1012.4
20260903095325 83 360 6.0 12.0 0.00 0.00 0.00 89 1012.3
20260903094835 83 360 7.0 12.0 0.00 0.00 0.00 89 1012.4
20260903094312 83 360 4.0 13.0 0.00 0.00 0.00 89 1012.4
20260903093851 83 360 6.0 13.0 0.00 0.00 0.00 89 1012.4
20260903093331 83 360 3.0 8.0 0.00 0.00 0.00 89 1012.5
20260903092830 83 360 4.0 10.0 0.00 0.00 0.00 89 1012.5
20260903092312 83 360 6.0 10.0 0.00 0.00 0.00 89 1012.5
20260903091812 83 360 5.0 10.0 0.00 0.00 0.00 89 1012.5
20260903091331 83 360 4.0 11.0 0.00 0.00 0.00 89 1012.5
20260903090827 83 360 6.0 11.0 0.00 0.00 0.00 89 1012.5
20260903090326 83 360 5.0 9.0 0.00 0.00 0.00 89 1012.5
20260903085826 83 360 2.0 11.0 0.00 0.00 0.00 89 1012.5
20260903085325 83 360 5.0 11.0 0.00 0.00 0.00 89 1012.5
20260903084823 83 360 7.0 11.0 0.00 0.00 0.00 89 1012.5
20260903084359 83 360 4.0 11.0 0.00 0.00 0.00 89 1012.5
20260903083847 83 360 5.0 13.0 0.00 0.00 0.00 88 1012.5
20260903083327 83 360 6.0 13.0 0.00 0.00 0.00 89 1012.5
20260903082826 83 360 5.0 11.0 0.00 0.00 0.00 88 1012.5
20260903082327 83 360 6.0 11.0 0.00 0.00 0.00 88 1012.5
20260903081829 83 360 4.0 10.0 0.00 0.00 0.00 88 1012.5
20260903081328 83 360 6.0 10.0 0.00 0.00 0.00 88 1012.6
20260903080849 83 360 5.0 10.0 0.00 0.00 0.00 88 1012.6
20260903080348 83 360 3.0 9.0 0.00 0.00 0.00 88 1012.5
20260903075820 83 360 4.0 8.0 0.00 0.00 0.00 88 1012.6
20260903075320 83 360 5.0 11.0 0.00 0.00 0.00 88 1012.6
20260903074841 83 360 5.0 11.0 0.00 0.00 0.00 88 1012.8
20260903074321 83 360 4.0 8.0 0.00 0.00 0.00 88 1012.7
20260903073822 83 360 4.0 8.0 0.00 0.00 0.00 88 1012.8
20260903073324 83 360 4.0 8.0 0.00 0.00 0.00 88 1012.7
20260903072823 83 360 2.0 8.0 0.00 0.00 0.00 88 1012.6
20260903072324 83 360 4.0 12.0 0.00 0.00 0.00 88 1012.6
20260903071836 83 360 6.0 12.0 0.00 0.00 0.00 88 1012.6
20260903071351 83 360 5.0 9.0 0.00 0.00 0.00 87 1012.7
20260903070829 83 360 5.0 13.0 0.00 0.00 0.00 87 1012.6
20260903070331 83 360 6.0 11.0 0.00 0.00 0.00 87 1012.7
20260903065829 83 360 6.0 11.0 0.00 0.00 0.00 87 1012.7
20260903065330 83 360 8.0 11.0 0.00 0.00 0.00 87 1012.8
20260903064851 83 360 8.0 11.0 0.00 0.00 0.00 86 1012.8
20260903064332 83 360 5.0 12.0 0.00 0.00 0.00 86 1012.8
20260903063832 83 360 6.0 12.0 0.00 0.00 0.00 86 1012.8
20260903063332 83 360 5.0 14.0 0.00 0.00 0.00 86 1012.8
20260903062813 83 360 8.0 13.0 0.00 0.00 0.00 85 1012.8
20260903062334 83 360 8.0 13.0 0.00 0.00 0.00 85 1012.8
20260903061846 84 360 6.0 17.0 0.00 0.00 0.00 85 1012.8
20260903061327 84 360 8.0 17.0 0.00 0.00 0.00 85 1012.8
20260903060826 84 360 9.0 16.0 0.00 0.00 0.00 84 1012.8
20260903060326 84 360 7.0 13.0 0.00 0.00 0.00 84 1012.7
20260903055846 84 360 7.0 12.0 0.00 0.00 0.00 84 1012.8
20260903055326 84 360 5.0 14.0 0.00 0.00 0.00 83 1012.8
20260903054825 84 360 7.0 14.0 0.00 0.00 0.00 83 1012.8
20260903054326 84 360 8.0 16.0 0.00 0.00 0.00 82 1013.0
20260903053825 84 360 8.0 16.0 0.00 0.00 0.00 82 1013.0
20260903053327 84 360 8.0 13.0 0.00 0.00 0.00 82 1013.0
20260903052829 84 360 7.0 11.0 0.00 0.00 0.00 81 1013.0
20260903052317 84 360 6.0 14.0 0.00 0.00 0.00 81 1013.0
20260903051830 84 360 7.0 14.0 0.00 0.00 0.00 81 1013.0
20260903051329 84 360 7.0 16.0 0.00 0.00 0.00 80 1012.9
20260903050846 84 360 8.0 15.0 0.00 0.00 0.00 80 1012.8
20260903050325 84 360 6.0 11.0 0.00 0.00 0.00 78 1012.8
20260903045816 85 360 4.0 15.0 0.00 0.00 0.00 77 1012.9
20260903045318 85 360 5.0 15.0 0.00 0.00 0.00 77 1012.9
20260903044819 85 360 4.0 9.0 0.00 0.00 0.00 76 1012.9
20260903044320 85 360 4.0 12.0 0.00 0.00 0.00 75 1012.9
20260903043819 85 360 8.0 13.0 0.00 0.00 0.00 75 1012.9
20260903043320 85 360 6.0 11.0 0.00 0.00 0.00 74 1012.9
20260903042820 85 360 4.0 9.0 0.00 0.00 0.00 73 1012.9
20260903042322 85 360 4.0 9.0 0.00 0.00 0.00 72 1012.9
20260903041821 85 360 4.0 12.0 0.00 0.00 0.00 72 1012.9
20260903041323 85 360 4.0 12.0 0.00 0.00 0.00 71 1012.8
20260903040825 85 360 5.0 10.0 0.00 0.00 0.00 71 1012.7
20260903040325 85 360 3.0 11.0 0.00 0.00 0.00 71 1012.7
20260903035826 85 360 4.0 12.0 0.00 0.00 0.00 71 1012.7
20260903035324 86 360 5.0 12.0 0.00 0.00 0.00 70 1012.6
20260903034826 86 360 4.0 9.0 0.00 0.00 0.00 70 1012.5
20260903034326 86 360 4.0 9.0 0.00 0.00 0.00 69 1012.4
20260903033835 86 360 3.0 8.0 0.00 0.00 0.00 68 1012.4
20260903033314 87 360 3.0 9.0 0.00 0.00 0.00 68 1012.4
20260903032816 87 360 3.0 12.0 0.00 0.00 0.00 69 1012.3
20260903032314 87 360 4.0 12.0 0.00 0.00 0.00 69 1012.3
20260903031814 87 360 4.0 10.0 0.00 0.00 0.00 70 1012.3
20260903031315 88 360 3.0 14.0 0.00 0.00 0.00 70 1012.2
20260903030814 88 360 4.0 14.0 0.00 0.00 0.00 69 1012.1
20260903030315 88 360 4.0 10.0 0.00 0.00 0.00 69 1012.0
20260903025814 88 360 4.0 10.0 0.00 0.00 0.00 68 1011.9
20260903025336 88 360 5.0 11.0 0.00 0.00 0.00 68 1011.7
20260903024815 88 360 3.0 11.0 0.00 0.00 0.00 67 1011.5
20260903024335 88 360 2.0 8.0 0.00 0.00 0.00 67 1011.5
20260903023851 89 360 2.0 12.0 0.00 0.00 0.00 66 1011.4
20260903023330 89 360 4.0 12.0 0.00 0.00 0.00 65 1011.2
20260903022830 89 360 4.0 10.0 0.00 0.00 0.00 65 1011.2
20260903022330 89 360 3.0 11.0 0.00 0.00 0.00 64 1011.1
20260903021830 89 360 4.0 18.0 0.00 0.00 0.00 64 1011.0
20260903021332 89 360 9.0 18.0 0.00 0.00 0.00 64 1011.0
20260903020813 89 360 4.0 11.0 0.00 0.00 0.00 64 1010.9
20260903020332 89 360 5.0 9.0 0.00 0.00 0.00 63 1010.7
20260903015813 89 360 3.0 8.0 0.00 0.00 0.00 63 1010.5
20260903015332 88 360 4.0 8.0 0.00 0.00 0.00 63 1010.5
20260903014844 88 360 2.0 8.0 0.00 0.00 0.00 65 1010.3
20260903014324 88 360 1.0 4.0 0.00 0.00 0.00 68 1010.2
20260903013824 89 360 2.0 4.0 0.00 0.00 0.00 65 1010.0
20260903013325 89 360 2.0 4.0 0.00 0.00 0.00 64 1010.0
20260903012846 90 360 0.0 2.0 0.00 0.00 0.00 63 1009.9
20260903012332 90 360 0.0 0.0 0.00 0.00 0.00 62 1009.8
20260903011823 91 360 0.0 4.0 0.00 0.00 0.00 61 1009.8
20260903011324 92 360 0.0 4.0 0.00 0.00 0.00 61 1009.7
20260903010820 93 360 1.0 4.0 0.00 0.00 0.00 60 1009.7
20260903010320 93 360 2.0 4.0 0.00 0.00 0.00 58 1009.7
20260903005820 94 360 1.0 3.0 0.00 0.00 0.00 58 1009.7
20260903005321 94 360 1.0 3.0 0.00 0.00 0.00 57 1009.7
20260903004814 95 360 2.0 4.0 0.00 0.00 0.00 55 1009.8
20260903004315 95 360 2.0 4.0 0.00 0.00 0.00 54 1009.7
20260903003814 96 360 2.0 4.0 0.00 0.00 0.00 54 1009.7
20260903003314 96 360 2.0 4.0 0.00 0.00 0.00 54 1009.8
20260903002815 96 360 3.0 5.0 0.00 0.00 0.00 53 1009.7
20260903002316 96 360 2.0 6.0 0.00 0.00 0.00 52 1009.7
20260903001817 96 360 4.0 6.0 0.00 0.00 0.00 53 1009.7
20260903001316 96 360 2.0 6.0 0.00 0.00 0.00 52 1009.7
20260903000817 96 360 4.0 6.0 0.00 0.00 0.00 52 1009.7
20260903000318 96 360 5.0 9.0 0.00 0.00 0.00 52 1009.6
20260902235838 95 360 3.0 6.0 0.00 0.00 0.00 52 1009.6
20260902235316 96 360 1.0 3.0 0.00 0.00 0.00 54 1009.6
20260902234815 97 360 1.0 3.0 0.00 0.00 0.00 54 1009.5
20260902234316 97 360 1.0 3.0 0.00 0.00 0.00 50 1009.5
20260902233815 98 360 0.0 1.0 0.00 0.00 0.00 53 1009.6
20260902233315 99 360 0.0 1.0 0.00 0.00 0.00 52 1009.6
20260902232813 100 360 0.0 1.0 0.00 0.00 0.00 51 1009.7
20260902232333 100 360 0.0 1.0 0.00 0.00 0.00 49 1009.6
20260902231813 101 360 0.0 2.0 0.00 0.00 0.00 49 1009.5
20260902231331 101 360 0.0 4.0 0.00 0.00 0.00 49 1009.6
20260902230830 101 360 1.0 4.0 0.00 0.00 0.00 45 1009.5
20260902230329 101 360 1.0 4.0 0.00 0.00 0.00 47 1009.6
20260902225827 101 360 0.0 3.0 0.00 0.00 0.00 45 1009.5
20260902225325 100 360 1.0 3.0 0.00 0.00 0.00 44 1009.6
20260902224825 100 360 0.0 4.0 0.00 0.00 0.00 47 1009.5
20260902224324 100 360 1.0 4.0 0.00 0.00 0.00 45 1009.5
20260902223845 100 360 2.0 3.0 0.00 0.00 0.00 49 1009.6
20260902223323 101 360 0.0 5.0 0.00 0.00 0.00 43 1009.6
20260902222845 101 360 3.0 5.0 0.00 0.00 0.00 44 1009.6
20260902222345 102 360 1.0 5.0 0.00 0.00 0.00 48 1009.6
20260902221841 102 360 2.0 8.0 0.00 0.00 0.00 45 1009.6
20260902221320 101 360 4.0 9.0 0.00 0.00 0.00 48 1009.6
20260902220818 102 360 4.0 9.0 0.00 0.00 0.00 44 1009.6
20260902220339 103 360 3.0 9.0 0.00 0.00 0.00 46 1009.7
20260902215817 103 360 3.0 9.0 0.00 0.00 0.00 45 1009.7
20260902215335 103 360 3.0 9.0 0.00 0.00 0.00 43 1009.7
20260902214848 104 360 3.0 11.0 0.00 0.00 0.00 40 1009.7
20260902214328 105 360 4.0 11.0 0.00 0.00 0.00 41 1009.8
20260902213818 105 360 5.0 9.0 0.00 0.00 0.00 40 1009.8
20260902213317 105 360 3.0 10.0 0.00 0.00 0.00 45 1009.9
20260902212815 105 360 2.0 10.0 0.00 0.00 0.00 42 1010.0
20260902212315 104 360 4.0 10.0 0.00 0.00 0.00 42 1010.0
20260902211813 104 360 5.0 9.0 0.00 0.00 0.00 44 1010.1
20260902211354 104 360 5.0 9.0 0.00 0.00 0.00 42 1010.1
20260902210813 103 360 5.0 9.0 0.00 0.00 0.00 45 1010.3
20260902210331 103 360 3.0 9.0 0.00 0.00 0.00 47 1010.3
20260902205820 103 360 4.0 6.0 0.00 0.00 0.00 43 1010.3
20260902205318 103 360 0.0 5.0 0.00 0.00 0.00 46 1010.4
20260902204836 103 360 3.0 5.0 0.00 0.00 0.00 44 1010.5
20260902204313 102 360 1.0 5.0 0.00 0.00 0.00 45 1010.6
20260902203833 102 360 2.0 8.0 0.00 0.00 0.00 44 1010.7
20260902203323 102 360 3.0 8.0 0.00 0.00 0.00 46 1010.7
20260902202823 102 360 4.0 12.0 0.00 0.00 0.00 46 1010.8
20260902202322 103 360 4.0 12.0 0.00 0.00 0.00 48 1010.8
20260902201818 102 360 3.0 6.0 0.00 0.00 0.00 48 1010.9
20260902201319 101 360 1.0 6.0 0.00 0.00 0.00 48 1011.1
20260902200820 101 360 3.0 6.0 0.00 0.00 0.00 46 1011.1
20260902200318 103 360 3.0 8.0 0.00 0.00 0.00 43 1011.2
20260902195817 104 360 4.0 11.0 0.00 0.00 0.00 46 1011.3
20260902195315 103 360 4.0 11.0 0.00 0.00 0.00 46 1011.4
20260902194814 103 360 2.0 8.0 0.00 0.00 0.00 47 1011.6
20260902194312 103 360 4.0 8.0 0.00 0.00 0.00 47 1011.7
20260902193830 102 360 3.0 8.0 0.00 0.00 0.00 48 1011.7
20260902193332 102 360 2.0 4.0 0.00 0.00 0.00 48 1011.8
20260902192825 102 360 0.0 2.0 0.00 0.00 0.00 44 1011.9
20260902192323 102 360 1.0 6.0 0.00 0.00 0.00 45 1011.9
20260902191823 102 360 2.0 8.0 0.00 0.00 0.00 45 1012.0
20260902191322 102 360 3.0 8.0 0.00 0.00 0.00 46 1012.1
20260902190820 102 360 3.0 8.0 0.00 0.00 0.00 45 1012.2
20260902190338 102 360 4.0 8.0 0.00 0.00 0.00 48 1012.3
20260902185815 102 360 2.0 5.0 0.00 0.00 0.00 49 1012.4
20260902185314 101 360 2.0 10.0 0.00 0.00 0.00 50 1012.4
20260902184813 101 360 3.0 10.0 0.00 0.00 0.00 48 1012.6
20260902184334 101 360 4.0 8.0 0.00 0.00 0.00 47 1012.7
20260902183848 101 360 2.0 10.0 0.00 0.00 0.00 49 1012.7
20260902183327 100 360 4.0 12.0 0.00 0.00 0.00 48 1012.8
20260902182828 100 360 3.0 6.0 0.00 0.00 0.00 53 1012.9
20260902182329 99 360 2.0 6.0 0.00 0.00 0.00 48 1012.9
20260902181829 98 360 3.0 9.0 0.00 0.00 0.00 54 1013.1
20260902181327 99 360 2.0 11.0 0.00 0.00 0.00 52 1013.2
20260902180827 99 360 3.0 8.0 0.00 0.00 0.00 48 1013.3
20260902180347 99 360 3.0 8.0 0.00 0.00 0.00 53 1013.4
20260902175825 99 360 3.0 8.0 0.00 0.00 0.00 56 1013.5
20260902175325 100 360 4.0 9.0 0.00 0.00 0.00 54 1013.6
20260902174817 100 360 1.0 11.0 0.00 0.00 0.00 54 1013.7
20260902174316 100 360 3.0 6.0 0.00 0.00 0.00 53 1013.8
20260902173815 99 360 2.0 8.0 0.00 0.00 0.00 55 1013.8
20260902173334 99 360 4.0 9.0 0.00 0.00 0.00 54 1013.9
20260902172851 98 360 2.0 11.0 0.00 0.00 0.00 55 1014.1
20260902172350 98 360 3.0 11.0 0.00 0.00 0.00 57 1014.1
20260902171821 98 360 2.0 8.0 0.00 0.00 0.00 56 1014.2
20260902171341 97 360 4.0 8.0 0.00 0.00 0.00 55 1014.2
20260902170819 97 360 2.0 9.0 0.00 0.00 0.00 56 1014.4
20260902170318 97 360 3.0 11.0 0.00 0.00 0.00 58 1014.4
20260902165836 96 360 4.0 11.0 0.00 0.00 0.00 59 1014.5
20260902165315 96 360 3.0 8.0 0.00 0.00 0.00 60 1014.5
20260902164814 96 360 4.0 10.0 0.00 0.00 0.00 62 1014.5
20260902164334 96 360 4.0 10.0 0.00 0.00 0.00 60 1014.6
20260902163852 95 360 4.0 10.0 0.00 0.00 0.00 59 1014.6
20260902163330 95 360 5.0 10.0 0.00 0.00 0.00 64 1014.6
20260902162824 94 360 4.0 10.0 0.00 0.00 0.00 62 1014.7
20260902162323 94 360 4.0 11.0 0.00 0.00 0.00 62 1014.7
20260902161822 94 360 4.0 11.0 0.00 0.00 0.00 64 1014.7
20260902161316 93 360 4.0 11.0 0.00 0.00 0.00 68 1014.7
20260902160814 93 360 3.0 9.0 0.00 0.00 0.00 68 1014.8
20260902160314 92 360 3.0 8.0 0.00 0.00 0.00 67 1014.8
20260902155813 92 360 2.0 9.0 0.00 0.00 0.00 71 1014.8
20260902155331 91 360 3.0 11.0 0.00 0.00 0.00 71 1014.8
20260902154831 91 360 6.0 11.0 0.00 0.00 0.00 71 1014.9
20260902154331 91 360 6.0 11.0 0.00 0.00 0.00 70 1014.8
20260902153851 91 360 5.0 11.0 0.00 0.00 0.00 71 1014.9
20260902153331 90 360 3.0 6.0 0.00 0.00 0.00 73 1014.8
20260902152829 90 360 3.0 12.0 0.00 0.00 0.00 74 1014.8
20260902152326 89 360 3.0 12.0 0.00 0.00 0.00 75 1014.8
20260902151824 89 360 3.0 9.0 0.00 0.00 0.00 74 1014.8
20260902151324 88 360 4.0 12.0 0.00 0.00 0.00 78 1014.8
20260902150818 88 360 7.0 13.0 0.00 0.00 0.00 79 1014.8
20260902150317 88 360 4.0 13.0 0.00 0.00 0.00 79 1014.8
20260902145818 87 360 5.0 12.0 0.00 0.00 0.00 79 1014.8
20260902145316 87 360 4.0 12.0 0.00 0.00 0.00 81 1014.8
20260902144816 86 360 6.0 12.0 0.00 0.00 0.00 82 1014.8
20260902144314 86 360 4.0 12.0 0.00 0.00 0.00 85 1014.9
20260902143812 85 360 4.0 9.0 0.00 0.00 0.00 85 1014.9